This demonstration page uses our WeatherBlox Daily Observations layout. Learn more.

Left ArrowRight Arrow

39.29038, -76.61219

Hourly Observations for November 27, 2016

Temp ( °F °C ) Dew Point ( °F °C ) Humidity (%) Winds ( mph kmh ) Pressure ( in mb ) Visibility ( mi km ) Precip ( " mm )
12:54 am 00:54 undefined 43 6.1 28 -2.2 56 56 undefined N/A 30.17 1022 N/A 0.00 0.00
1:54 am 01:54 undefined 42 5.6 27 -2.8 55 55 undefined N/A 30.18 1022 N/A 0.00 0.00
2:54 am 02:54 undefined 43 6.1 27 -2.8 53 53 undefined N/A 30.18 1022 N/A 0.00 0.00
3:54 am 03:54 undefined 42 5.6 26 -3.3 53 53 undefined N/A 30.18 1022 N/A 0.00 0.00
4:54 am 04:54 undefined 41 5 26 -3.3 55 55 undefined N/A 30.19 1022 N/A 0.00 0.00
5:54 am 05:54 undefined 40 4.4 26 -3.3 58 58 undefined N/A 30.20 1023 N/A 0.00 0.00
6:54 am 06:54 undefined 39 3.9 26 -3.3 60 60 undefined N/A 30.21 1023 N/A 0.00 0.00
7:54 am 07:54 undefined 40 4.4 25 -3.9 55 55 undefined N/A 30.21 1023 N/A 0.00 0.00
8:54 am 08:54 undefined 44 6.7 25 -3.9 47 47 undefined N/A 30.22 1023 N/A 0.00 0.00
9:54 am 09:54 undefined 45 7.2 26 -3.3 48 48 undefined N/A 30.22 1024 N/A 0.00 0.00
10:54 am 10:54 undefined 48 8.9 26 -3.3 42 42 undefined N/A 30.22 1023 N/A 0.00 0.00
11:54 am 11:54 undefined 49 9.4 25 -3.9 39 39 undefined N/A 30.20 1023 N/A 0.00 0.00
12:54 pm 12:54 undefined 50 10 25 -3.9 38 38 undefined N/A 30.18 1022 N/A 0.00 0.00
1:54 pm 13:54 undefined 51 10.6 26 -3.3 38 38 undefined N/A 30.16 1022 N/A 0.00 0.00
2:54 pm 14:54 undefined 50 10 26 -3.3 39 39 undefined N/A 30.16 1021 N/A 0.00 0.00
3:54 pm 15:54 undefined 50 10 25 -3.9 38 38 undefined N/A 30.16 1021 N/A 0.00 0.00
4:54 pm 16:54 undefined 49 9.4 26 -3.3 41 41 undefined N/A 30.18 1022 N/A 0.00 0.00
5:54 pm 17:54 undefined 48 8.9 26 -3.3 42 42 undefined N/A 30.19 1022 N/A 0.00 0.00
6:54 pm 18:54 undefined 47 8.3 27 -2.8 46 46 undefined N/A 30.20 1023 N/A 0.00 0.00
7:54 pm 19:54 undefined 47 8.3 27 -2.8 46 46 undefined N/A 30.20 1023 N/A 0.00 0.00
8:54 pm 20:54 undefined 43 6.1 27 -2.8 53 53 undefined N/A 30.20 1023 N/A 0.00 0.00
9:54 pm 21:54 undefined 42 5.6 28 -2.2 58 58 undefined N/A 30.19 1022 N/A 0.00 0.00
10:54 pm 22:54 undefined 41 5 28 -2.2 60 60 undefined N/A 30.19 1022 N/A 0.00 0.00
11:54 pm 23:54 undefined 40 4.4 27 -2.8 60 60 undefined N/A 30.20 1023 N/A 0.00 0.00

Powered by AerisWeather